Regional Weather Roundup
Issued by NWS

Home | Current Version | Previous Version | Text Only | Print | Product List | Glossary On
Versions: 1 2 3 4 5 6 7 8 9 10 11 12 13 14 15 16 17 18 19 20 21 22 23 24 25 26 27 28 29 30 31 32 33 34 35 36 37 38 39 40 41 42 43 44 45 46 47 48 49 50
000
ASUS43 KMKX 251359
RWRWI

WISCONSIN REGIONAL WEATHER ROUNDUP
NATIONAL WEATHER SERVICE MILWAUKEE/SULLIVAN WI
800 AM CST SUN JAN 25 2015

NOTE: "FAIR" INDICATES FEW OR NO CLOUDS BELOW 12,000 FEET WITH NO
SIGNIFICANT WEATHER AND/OR OBSTRUCTIONS TO VISIBILITY.

WIZ001-002-006>008-014>016-023>028-251500-
NORTHWEST WISCONSIN

CITY           SKY/WX    TMP DP  RH WIND       PRES   REMARKS
SUPERIOR ARPT  CLOUDY    20  16  84 NE8       30.01R WCI  11
ASHLAND        CLOUDY    18  11  74 E7        30.01R WCI   9
HAYWARD        CLOUDY    17   9  70 CALM      29.96R
SIREN          CLOUDY    19  11  71 E5        29.98S WCI  12
CUMBERLAND     PTCLDY    14   9  79 NE7       29.94R WCI   4
RICE LAKE      PTCLDY    12   7  81 N8        29.97R WCI   1
CHETEK         PTCLDY    15   9  76 N6        29.96R WCI   6
LADYSMITH      CLOUDY    15   9  78 NE9       29.95R WCI   3
EAU CLAIRE     NOT AVBL
MENOMONIE      CLOUDY    21  13  71 N10       29.93R WCI  10
NEW RICHMOND   PTCLDY    17  10  73 NE13      29.95R WCI   3
OSCEOLA        PTCLDY    18  10  70 NE9G18    29.98R WCI   7
$$

WIZ003>005-009-010-017-018-251500-
NORTH CENTRAL WISCONSIN

CITY           SKY/WX    TMP DP  RH WIND       PRES   REMARKS
MANITOWISH WTR CLOUDY    12   6  77 NE12G20   29.92R WCI  -2
ARBOR VITAE    FLURRIES  14   9  78 E3        29.91R
WOODRUFF       FLURRIES  14   9  78 E3        29.91R
RHINELANDER    CLOUDY    13   6  74 E10       29.91R WCI   0
EAGLE RIVER    CLOUDY    12   5  71 NE13      29.91R WCI  -3
LAND O LAKES   CLOUDY    12   6  77 NE9       29.94R WCI   0
PHILLIPS       FLURRIES  13   8  79 NE7G16    29.91R WCI   3
TOMAHAWK       CLOUDY    14   8  76 NE8       29.91R WCI   3
MEDFORD        CLOUDY    14   8  76 NE9       29.89R WCI   2
MERRILL        CLOUDY    16   9  74 NE10G18   29.91R WCI   3
$$

WIZ029-030-035-036-043>047-251500-
CENTRAL WISCONSIN

CITY           SKY/WX    TMP DP  RH WIND       PRES   REMARKS
WAUSAU         CLOUDY    16   9  74 NE8       29.91R WCI   5
MOSINEE        NOT AVBL
MARSHFIELD     CLOUDY    19  10  68 NE9       29.90R WCI   8
STEVENS POINT  CLOUDY    17  10  73 E13       29.91R WCI   4
WAUPACA        CLOUDY    22  13  69 E9        29.93R WCI  12
WAUTOMA        NOT AVBL
WISC RAPIDS    CLOUDY    20  10  65 E8        29.92R WCI  10
CAMP DOUGLAS   CLOUDY    21  19  93 NE6       29.89R WCI  14
$$

WIZ011>013-019>022-031-037>040-048>050-251500-
NORTHEAST WISCONSIN

CITY           SKY/WX    TMP DP  RH WIND       PRES   REMARKS
ANTIGO         FLURRIES  14   8  79 E14       29.90R WCI  -1
SHAWANO        CLOUDY    20  12  71 NE12      29.96R WCI   8
OCONTO         MOCLDY    15  10  80 MISG      29.99R
STURGEON BAY   CLOUDY    14   7  73 N13       29.98R WCI   0
GREEN BAY      CLOUDY    18   9  68 NE22      29.96R WCI   1
MANITOWOC      NOT AVBL
APPLETON       CLOUDY    18   9  68 NE16G25   29.92R WCI   3
CLINTONVILLE   CLOUDY    19  10  68 E15G22    29.94R WCI   5
OSHKOSH        CLOUDY    20  12  71 NE20      29.91R WCI   4
$$

WIZ032>034-041-042-053>061-251500-
SOUTHWEST WISCONSIN

CITY           SKY/WX    TMP DP  RH WIND       PRES   REMARKS
LA CROSSE      CLOUDY    28  20  71 NE10      29.89R WCI  19
SPARTA         CLOUDY    23  16  74 E14       29.90R WCI  10
VIROQUA        CLOUDY    23  18  81 NE17      29.82R WCI   9
BOSCOBEL       FLURRIES  26  19  74 NE6G20    29.85R WCI  19
PRAIRIE DU CHI LGT SNOW  27  22  79 NE9G16    29.82R WCI  18
PLATTEVILLE    CLOUDY    27  23  87 N21G28    29.78R WCI  13
$$

WIZ056-057-062-063-064-067-068-251500-
SOUTH CENTRAL WISCONSIN

CITY           SKY/WX    TMP DP  RH WIND       PRES   REMARKS
REEDSBURG      LGT SNOW  21  18  86 NE9       29.86R WCI  11
BARABOO/DELLS  CLOUDY    21  17  83 NE15G21   29.85R HAZE    WCI   8
LONE ROCK      NOT AVBL
MINERAL POINT  LGT SNOW  27  23  86 NE16      29.78R WCI  14
MADISON        FLURRIES  23  19  85 NE14      29.84R WCI  11
MIDDLETON      CLOUDY    25  20  82 NE14G20   29.83R WCI  13
WATERTOWN      CLOUDY    25  22  87 NE13      29.82R WCI  14
MONROE         LGT SNOW  27  25  93 NE21G29   29.76R WCI  13
JANESVILLE     FLURRIES  28  25  86 NE15G22   29.78R WCI  17
$$

WIZ051-052-058>065-066-070>072-251500-
SOUTHEAST WISCONSIN

CITY           SKY/WX    TMP DP  RH WIND       PRES   REMARKS
MILWAUKEE      FLURRIES  26  17  68 NE22G29   29.84R WCI  12
WAUKESHA       LGT SNOW  25  21  86 NE17G35   29.83R WCI  11
MILWAUKEE/TIMM LGT SNOW  27  19  74 NE15G28   29.86R WCI  15
RACINE         CLOUDY    27  19  72 NE17G28   29.84R WCI  14
BURLINGTON     CLOUDY    26  22  87 NE17G28   29.80R WCI  12
KENOSHA        LGT SNOW  27  22  81 NE21      29.81R WCI  13
FOND DU LAC    CLOUDY    23  16  74 NE14      29.90R WCI  11
SHEBOYGAN      CLOUDY    24  16  71 NE22G32   29.89R WCI   9
WEST BEND      CLOUDY    27  19  74 NE22G31   29.85R WCI  12
JUNEAU         CLOUDY    23  18  81 NE15      29.86R WCI  10
$$

LSZ147-162-251500-
LAKE SUPERIOR

STATION/POSITION TIME  TEMP    WIND        PRES    WAVE
                       AIR SEA DIR/SP/G            HT/PER
                 (UTC) (F)     (DEG/KT/KT) (MB)    (FT/S)
DEVILS ISLAND    1300   20      60/ 18/ 21 1017.8R
PORT WING        1300   22      80/  7/ 10 1016.3R
SAXON HARBOR     1300   18     100/  2/  7 1015.9
$$

LMZ867-665-643>646-251500-
LAKE MICHIGAN

STATION/POSITION TIME  TEMP    WIND        PRES    WAVE
                       AIR SEA DIR/SP/G            HT/PER
                 (UTC) (F)     (DEG/KT/KT) (MB)    (FT/S)
NORTHPORT PIER   1306   15      10/ 17/ 23 1015.6R
SISTER BAY       1313   14     360/ 11/ 17   N/A
KEWAUNEE LAKESHO 1300   22      50/ 23/ 27 1012.4R
SHEBOYGAN LAKESH 1300   25      40/ 28/ 32 1012.5R
PORT WASHINGTON  1300   28      40/ 23/ 30 1011.9R
MILWAUKEE LAKESH 1300   28      40/ 26/ 30   N/A
KENOSHA   LAKESH 1300   29      30/ 27/ 29 1008.8R
$$

TC  - TEMPERATURE IN CELSIUS
VSB - VISIBILITY IN STATUTE MILES
WCI - WIND CHILL INDEX
HX  - HEAT INDEX




USA.gov is the U.S. government's official web portal to all federal, state and local government web resources and services.